Time,TemperatureF,DewpointF,PressureIn,WindDirection,WindDirectionDegrees,WindSpeedMPH,WindSpeedGustMPH,Humidity,HourlyPrecipIn,Conditions,Clouds,dailyrainin,SoftwareType,DateUTC
2013-12-28 00:03:00,33.0,30.0,-100.00,SSW,205,1.0,4.0,91,-99.99,,,-99.99,,2013-12-28 06:03:00,
2013-12-28 00:22:00,33.0,31.0,-100.00,SSW,205,4.0,7.0,92,-99.99,,,-99.99,,2013-12-28 06:22:00,
2013-12-28 00:42:00,33.0,31.0,-100.00,SSW,205,2.0,7.0,93,-99.99,,,-99.99,,2013-12-28 06:42:00,
2013-12-28 00:52:00,33.0,31.0,-100.00,SSW,205,2.0,7.0,93,-99.99,,,-99.99,,2013-12-28 06:52:00,
2013-12-28 01:02:00,33.0,31.0,-100.00,SSW,205,2.0,7.0,93,-99.99,,,-99.99,,2013-12-28 07:02:00,
2013-12-28 01:42:00,31.0,30.0,-100.00,SSW,205,1.0,4.0,96,-99.99,,,-99.99,,2013-12-28 07:42:00,
2013-12-28 03:43:00,26.0,26.0,-100.00,SSW,200,3.0,4.0,99,-99.99,,,-99.99,,2013-12-28 09:43:00,
2013-12-28 03:53:00,26.0,26.0,-100.00,SSW,200,3.0,4.0,99,-99.99,,,-99.99,,2013-12-28 09:53:00,
2013-12-28 04:03:00,26.0,26.0,-100.00,SSW,200,3.0,4.0,99,-99.99,,,-99.99,,2013-12-28 10:03:00,
2013-12-28 05:52:00,25.0,25.0,-100.00,SSW,200,1.0,2.0,99,-99.99,,,-99.99,,2013-12-28 11:52:00,
2013-12-28 06:02:00,25.0,25.0,-100.00,SSW,200,1.0,2.0,99,-99.99,,,-99.99,,2013-12-28 12:02:00,
2013-12-28 06:42:00,23.0,23.0,-100.00,SSW,200,0.0,1.0,99,-99.99,,,-99.99,,2013-12-28 12:42:00,
2013-12-28 06:52:00,23.0,23.0,-100.00,SSW,200,0.0,1.0,99,-99.99,,,-99.99,,2013-12-28 12:52:00,
2013-12-28 07:01:00,23.0,23.0,-100.00,SSW,200,0.0,1.0,99,-99.99,,,-99.99,,2013-12-28 13:01:00,
2013-12-28 07:42:00,21.0,21.0,-100.00,SSW,200,0.0,0.0,99,-99.99,,,-99.99,,2013-12-28 13:42:00,
2013-12-28 07:52:00,21.0,21.0,-100.00,SSW,200,0.0,0.0,99,-99.99,,,-99.99,,2013-12-28 13:52:00,
2013-12-28 08:02:00,21.0,21.0,-100.00,SSW,200,0.0,0.0,99,-99.99,,,-99.99,,2013-12-28 14:02:00,
2013-12-28 08:42:00,23.0,23.0,-100.00,SSW,200,1.0,3.0,99,-99.99,,,-99.99,,2013-12-28 14:42:00,
2013-12-28 08:53:00,23.0,23.0,-100.00,SSW,200,1.0,3.0,99,-99.99,,,-99.99,,2013-12-28 14:53:00,
2013-12-28 09:02:00,23.0,23.0,-100.00,SSW,200,1.0,3.0,99,-99.99,,,-99.99,,2013-12-28 15:02:00,
2013-12-28 11:43:00,43.0,31.0,-100.00,SSW,200,0.0,7.0,62,-99.99,,,-99.99,,2013-12-28 17:43:00,
2013-12-28 11:52:00,43.0,31.0,-100.00,SSW,200,0.0,7.0,62,-99.99,,,-99.99,,2013-12-28 17:52:00,
2013-12-28 12:02:00,43.0,31.0,-100.00,SSW,200,0.0,7.0,62,-99.99,,,-99.99,,2013-12-28 18:02:00,
2013-12-28 12:42:00,44.0,29.0,-100.00,SSW,200,7.0,11.0,57,-99.99,,,-99.99,,2013-12-28 18:42:00,
2013-12-28 12:52:00,44.0,29.0,-100.00,SSW,200,7.0,11.0,57,-99.99,,,-99.99,,2013-12-28 18:52:00,
2013-12-28 13:02:00,44.0,29.0,-100.00,SSW,200,7.0,11.0,57,-99.99,,,-99.99,,2013-12-28 19:02:00,
2013-12-28 13:42:00,44.0,29.0,-100.00,SSW,200,9.0,17.0,55,-99.99,,,-99.99,,2013-12-28 19:42:00,
2013-12-28 13:52:00,44.0,29.0,-100.00,SSW,200,9.0,17.0,55,-99.99,,,-99.99,,2013-12-28 19:52:00,
2013-12-28 14:02:00,44.0,29.0,-100.00,SSW,200,9.0,17.0,55,-99.99,,,-99.99,,2013-12-28 20:02:00,
2013-12-28 14:42:00,45.0,29.0,-100.00,SSW,200,6.0,13.0,54,-99.99,,,-99.99,,2013-12-28 20:42:00,
2013-12-28 14:52:00,45.0,29.0,-100.00,SSW,200,6.0,13.0,54,-99.99,,,-99.99,,2013-12-28 20:52:00,
2013-12-28 15:02:00,45.0,29.0,-100.00,SSW,200,6.0,13.0,54,-99.99,,,-99.99,,2013-12-28 21:02:00,
2013-12-28 15:43:00,44.0,29.0,-100.00,SSW,200,4.0,7.0,55,-99.99,,,-99.99,,2013-12-28 21:43:00,
2013-12-28 15:53:00,44.0,29.0,-100.00,SSW,200,4.0,7.0,55,-99.99,,,-99.99,,2013-12-28 21:53:00,
2013-12-28 16:02:00,44.0,29.0,-100.00,SSW,200,4.0,7.0,55,-99.99,,,-99.99,,2013-12-28 22:02:00,
2013-12-28 16:42:00,43.0,28.0,-100.00,SSW,200,6.0,11.0,56,-99.99,,,-99.99,,2013-12-28 22:42:00,
2013-12-28 16:52:00,43.0,28.0,-100.00,SSW,200,6.0,11.0,56,-99.99,,,-99.99,,2013-12-28 22:52:00,
2013-12-28 17:03:00,43.0,28.0,-100.00,SSW,200,6.0,11.0,56,-99.99,,,-99.99,,2013-12-28 23:03:00,
2013-12-28 17:43:00,42.0,28.0,-100.00,SSW,200,4.0,11.0,59,-99.99,,,-99.99,,2013-12-28 23:43:00,
2013-12-28 17:53:00,42.0,28.0,-100.00,SSW,200,4.0,11.0,59,-99.99,,,-99.99,,2013-12-28 23:53:00,
2013-12-28 18:02:00,42.0,28.0,-100.00,SSW,200,4.0,11.0,59,-99.99,,,-99.99,,2013-12-29 00:02:00,
2013-12-28 18:42:00,41.0,28.0,-100.00,SSW,200,5.0,12.0,61,-99.99,,,-99.99,,2013-12-29 00:42:00,
2013-12-28 18:52:00,41.0,28.0,-100.00,SSW,200,5.0,12.0,61,-99.99,,,-99.99,,2013-12-29 00:52:00,
2013-12-28 19:02:00,41.0,28.0,-100.00,SSW,200,5.0,12.0,61,-99.99,,,-99.99,,2013-12-29 01:02:00,
2013-12-28 19:42:00,40.0,29.0,-100.00,SSW,200,4.0,10.0,64,-99.99,,,-99.99,,2013-12-29 01:42:00,
2013-12-28 19:52:00,40.0,29.0,-100.00,SSW,200,4.0,10.0,64,-99.99,,,-99.99,,2013-12-29 01:52:00,
2013-12-28 20:02:00,40.0,29.0,-100.00,SSW,200,4.0,10.0,64,-99.99,,,-99.99,,2013-12-29 02:02:00,
2013-12-28 20:22:00,40.0,29.0,-100.00,SSW,200,5.0,9.0,65,-99.99,,,-99.99,,2013-12-29 02:22:00,
2013-12-28 20:42:00,41.0,30.0,-100.00,SSW,200,4.0,9.0,65,-99.99,,,-99.99,,2013-12-29 02:42:00,
2013-12-28 20:52:00,41.0,30.0,-100.00,SSW,200,4.0,9.0,65,-99.99,,,-99.99,,2013-12-29 02:52:00,
2013-12-28 21:02:00,41.0,30.0,-100.00,SSW,200,4.0,9.0,65,-99.99,,,-99.99,,2013-12-29 03:02:00,
2013-12-28 22:42:00,41.0,30.0,-100.00,SSW,205,3.0,11.0,66,-99.99,,,-99.99,,2013-12-29 04:42:00,
2013-12-28 22:53:00,41.0,30.0,-100.00,SSW,205,3.0,11.0,66,-99.99,,,-99.99,,2013-12-29 04:53:00,
2013-12-28 23:02:00,41.0,30.0,-100.00,SSW,205,3.0,11.0,66,-99.99,,,-99.99,,2013-12-29 05:02:00,
2013-12-28 23:43:00,40.0,31.0,-100.00,SSW,205,8.0,14.0,72,-99.99,,,-99.99,,2013-12-29 05:43:00,
2013-12-28 23:53:00,40.0,31.0,-100.00,SSW,205,8.0,14.0,72,-99.99,,,-99.99,,2013-12-29 05:53:00,